| time (UTC) | temp F | wind direction | speed knots | gust knots | rain 1hr in | rain 24hr in | rain mn in | humidity % | barometer mb |
| 20260906133353 | 72 | 68 | 0.0 | 0.0 | 0.00 | 0.00 | 0.00 | 95 | 1020.3 |
| 20260906132849 | 72 | 93 | 0.9 | 1.7 | 0.00 | 0.00 | 0.00 | 95 | 1020.3 |
| 20260906132344 | 72 | 123 | 0.9 | 1.7 | 0.00 | 0.00 | 0.00 | 95 | 1020.1 |
| 20260906131840 | 72 | 96 | 0.0 | 0.0 | 0.00 | 0.00 | 0.00 | 95 | 1020.2 |
| 20260906131336 | 72 | 61 | 0.0 | 0.0 | 0.00 | 0.00 | 0.00 | 95 | 1020.2 |
| 20260906130831 | 72 | 96 | 0.0 | 0.9 | 0.00 | 0.00 | 0.00 | 95 | 1020.3 |
| 20260906130330 | 72 | 81 | 0.0 | 0.9 | 0.00 | 0.00 | 0.00 | 95 | 1020.2 |
| 20260906125830 | 72 | 48 | 0.0 | 0.9 | 0.00 | 0.00 | 0.00 | 95 | 1020.1 |
| 20260906125326 | 72 | 73 | 0.0 | 0.0 | 0.00 | 0.00 | 0.00 | 95 | 1020.1 |
| 20260906124822 | 72 | 40 | 0.0 | 0.0 | 0.00 | 0.00 | 0.00 | 95 | 1020.0 |
| 20260906124318 | 72 | 84 | 0.0 | 0.0 | 0.00 | 0.00 | 0.00 | 95 | 1020.2 |
| 20260906123817 | 72 | 79 | 0.0 | 0.0 | 0.00 | 0.00 | 0.00 | 96 | 1020.3 |
| 20260906123312 | 72 | 64 | 0.0 | 0.9 | 0.00 | 0.00 | 0.00 | 95 | 1020.1 |
| 20260906122811 | 72 | 89 | 0.0 | 0.0 | 0.00 | 0.00 | 0.00 | 95 | 1019.9 |
| 20260906122307 | 72 | 94 | 0.9 | 1.7 | 0.00 | 0.00 | 0.00 | 95 | 1019.9 |
| 20260906121804 | 72 | 84 | 0.0 | 0.0 | 0.00 | 0.00 | 0.00 | 95 | 1019.6 |
| 20260906121259 | 72 | 69 | 0.0 | 0.0 | 0.00 | 0.00 | 0.00 | 95 | 1019.4 |
| 20260906120755 | 72 | 96 | 0.0 | 0.0 | 0.00 | 0.00 | 0.00 | 95 | 1019.4 |
| 20260906120251 | 72 | 85 | 0.0 | 0.0 | 0.00 | 0.00 | 0.00 | 95 | 1019.3 |
| 20260906115746 | 72 | 84 | 0.0 | 0.0 | 0.00 | 0.00 | 0.00 | 95 | 1019.2 |
| 20260906115241 | 72 | 86 | 0.0 | 0.0 | 0.00 | 0.00 | 0.00 | 95 | 1019.3 |
| 20260906114740 | 72 | 11 | 0.0 | 0.0 | 0.00 | 0.00 | 0.00 | 95 | 1019.1 |
| 20260906114236 | 72 | 143 | 0.0 | 0.0 | 0.00 | 0.00 | 0.00 | 95 | 1019.2 |
| 20260906113731 | 72 | 91 | 0.0 | 0.0 | 0.00 | 0.00 | 0.00 | 95 | 1019.0 |
| 20260906113231 | 73 | 97 | 0.0 | 0.0 | 0.00 | 0.00 | 0.00 | 95 | 1018.9 |
| 20260906112730 | 73 | 97 | 0.0 | 0.0 | 0.00 | 0.00 | 0.00 | 94 | 1018.9 |
| 20260906112227 | 73 | 98 | 0.0 | 0.0 | 0.00 | 0.00 | 0.00 | 94 | 1018.7 |
| 20260906111726 | 73 | 99 | 0.0 | 0.0 | 0.00 | 0.00 | 0.00 | 94 | 1018.8 |
| 20260906111221 | 73 | 79 | 0.0 | 0.0 | 0.00 | 0.00 | 0.00 | 94 | 1018.9 |
| 20260906110716 | 73 | 79 | 0.0 | 0.0 | 0.00 | 0.00 | 0.00 | 94 | 1018.7 |
| 20260906110212 | 73 | 79 | 0.0 | 0.0 | 0.00 | 0.00 | 0.00 | 94 | 1018.8 |
| 20260906105705 | 73 | 79 | 0.0 | 0.0 | 0.00 | 0.00 | 0.00 | 94 | 1018.7 |
| 20260906105202 | 73 | 79 | 0.0 | 0.0 | 0.00 | 0.00 | 0.00 | 94 | 1018.5 |
| 20260906104701 | 73 | 79 | 0.0 | 0.0 | 0.00 | 0.00 | 0.00 | 94 | 1018.6 |
| 20260906104200 | 74 | 79 | 0.0 | 0.0 | 0.00 | 0.00 | 0.00 | 94 | 1018.7 |
| 20260906103658 | 74 | 80 | 0.0 | 0.0 | 0.00 | 0.00 | 0.00 | 94 | 1018.7 |
| 20260906103154 | 74 | 80 | 0.0 | 0.0 | 0.00 | 0.00 | 0.00 | 94 | 1018.5 |
| 20260906102649 | 74 | 80 | 0.0 | 0.0 | 0.00 | 0.00 | 0.00 | 94 | 1018.5 |
| 20260906102148 | 74 | 82 | 0.0 | 0.0 | 0.00 | 0.00 | 0.00 | 93 | 1018.5 |
| 20260906101648 | 74 | 83 | 0.0 | 0.0 | 0.00 | 0.00 | 0.00 | 93 | 1018.4 |
| 20260906101143 | 74 | 86 | 0.0 | 0.0 | 0.00 | 0.00 | 0.00 | 93 | 1018.3 |
| 20260906100639 | 74 | 104 | 0.0 | 0.0 | 0.00 | 0.00 | 0.00 | 93 | 1018.2 |
| 20260906100133 | 75 | 84 | 0.0 | 0.0 | 0.00 | 0.00 | 0.00 | 93 | 1018.2 |
| 20260906095628 | 75 | 63 | 0.0 | 0.0 | 0.00 | 0.00 | 0.00 | 93 | 1018.1 |
| 20260906095124 | 75 | 63 | 0.0 | 0.0 | 0.00 | 0.00 | 0.00 | 93 | 1018.2 |
| 20260906094622 | 75 | 63 | 0.0 | 0.0 | 0.00 | 0.00 | 0.00 | 93 | 1018.1 |
| 20260906094119 | 75 | 63 | 0.0 | 0.0 | 0.00 | 0.00 | 0.00 | 93 | 1018.2 |
| 20260906093614 | 75 | 64 | 0.0 | 0.0 | 0.00 | 0.00 | 0.00 | 92 | 1018.2 |
| 20260906093109 | 75 | 63 | 0.0 | 0.0 | 0.00 | 0.00 | 0.00 | 92 | 1018.0 |
| 20260906092603 | 75 | 64 | 0.0 | 0.0 | 0.00 | 0.00 | 0.00 | 92 | 1017.9 |
| 20260906092059 | 76 | 62 | 0.0 | 0.0 | 0.00 | 0.00 | 0.00 | 92 | 1017.9 |
| 20260906091554 | 76 | 62 | 0.0 | 0.0 | 0.00 | 0.00 | 0.00 | 91 | 1017.8 |
| 20260906091051 | 76 | 62 | 0.0 | 0.0 | 0.00 | 0.00 | 0.00 | 91 | 1017.6 |
| 20260906090550 | 76 | 67 | 0.0 | 0.0 | 0.00 | 0.00 | 0.00 | 91 | 1017.7 |
| 20260906090045 | 76 | 67 | 0.0 | 0.0 | 0.00 | 0.00 | 0.00 | 91 | 1017.7 |
| 20260906085544 | 77 | 67 | 0.0 | 0.0 | 0.00 | 0.00 | 0.00 | 90 | 1017.7 |
| 20260906085044 | 77 | 66 | 0.0 | 0.0 | 0.00 | 0.00 | 0.00 | 90 | 1017.7 |
| 20260906084539 | 77 | 66 | 0.0 | 0.0 | 0.00 | 0.00 | 0.00 | 90 | 1017.6 |
| 20260906084037 | 77 | 72 | 0.0 | 0.0 | 0.00 | 0.00 | 0.00 | 90 | 1017.7 |
| 20260906083533 | 77 | 78 | 0.0 | 0.0 | 0.00 | 0.00 | 0.00 | 90 | 1017.7 |
| 20260906083033 | 77 | 69 | 0.0 | 0.0 | 0.00 | 0.00 | 0.00 | 90 | 1017.7 |
| 20260906082528 | 77 | 70 | 0.0 | 0.0 | 0.00 | 0.00 | 0.00 | 89 | 1017.6 |
| 20260906082024 | 77 | 68 | 0.0 | 0.0 | 0.00 | 0.00 | 0.00 | 89 | 1017.8 |
| 20260906081519 | 77 | 73 | 0.0 | 0.0 | 0.00 | 0.00 | 0.00 | 89 | 1017.7 |
| 20260906081015 | 77 | 81 | 0.0 | 0.0 | 0.00 | 0.00 | 0.00 | 89 | 1017.7 |
| 20260906080512 | 78 | 78 | 0.0 | 0.0 | 0.00 | 0.00 | 0.00 | 89 | 1017.6 |
| 20260906080007 | 78 | 78 | 0.0 | 0.0 | 0.00 | 0.00 | 0.00 | 88 | 1017.5 |
| 20260906075501 | 78 | 78 | 0.0 | 0.0 | 0.00 | 0.00 | 0.00 | 87 | 1017.5 |
| 20260906074956 | 78 | 80 | 0.0 | 0.0 | 0.00 | 0.00 | 0.00 | 87 | 1017.5 |
| 20260906074451 | 78 | 80 | 0.0 | 0.0 | 0.00 | 0.00 | 0.00 | 87 | 1017.4 |
| 20260906073949 | 78 | 80 | 0.0 | 0.0 | 0.00 | 0.00 | 0.00 | 86 | 1017.6 |
| 20260906073444 | 78 | 78 | 0.0 | 0.0 | 0.00 | 0.00 | 0.00 | 86 | 1017.6 |
| 20260906072941 | 78 | 83 | 0.0 | 0.0 | 0.00 | 0.00 | 0.00 | 86 | 1017.5 |
| 20260906072436 | 79 | 92 | 0.0 | 0.9 | 0.00 | 0.00 | 0.00 | 86 | 1017.5 |
| 20260906071932 | 79 | 82 | 0.0 | 0.9 | 0.00 | 0.00 | 0.00 | 85 | 1017.4 |
| 20260906071428 | 79 | 79 | 0.0 | 0.0 | 0.00 | 0.00 | 0.00 | 85 | 1017.5 |
| 20260906070924 | 79 | 78 | 0.0 | 0.0 | 0.00 | 0.00 | 0.00 | 85 | 1017.6 |
| 20260906070419 | 79 | 88 | 0.0 | 0.0 | 0.00 | 0.00 | 0.00 | 85 | 1017.6 |
| 20260906065915 | 79 | 107 | 0.0 | 0.0 | 0.00 | 0.00 | 0.00 | 86 | 1017.7 |
| 20260906065409 | 80 | 78 | 0.0 | 0.0 | 0.00 | 0.00 | 0.00 | 86 | 1017.8 |
| 20260906064904 | 80 | 109 | 0.9 | 1.7 | 0.00 | 0.00 | 0.00 | 86 | 1017.8 |
| 20260906064400 | 80 | 131 | 0.0 | 0.0 | 0.00 | 0.00 | 0.00 | 86 | 1017.8 |
| 20260906063855 | 80 | 72 | 0.0 | 0.0 | 0.00 | 0.00 | 0.00 | 87 | 1017.8 |
| 20260906063350 | 80 | 90 | 0.0 | 0.0 | 0.00 | 0.00 | 0.00 | 88 | 1017.8 |
| 20260906062845 | 80 | 32 | 0.0 | 0.0 | 0.00 | 0.00 | 0.00 | 88 | 1017.8 |
| 20260906062344 | 80 | 70 | 0.0 | 0.0 | 0.00 | 0.00 | 0.00 | 88 | 1017.8 |
| 20260906061839 | 80 | 73 | 0.0 | 0.0 | 0.00 | 0.00 | 0.00 | 87 | 1017.8 |
| 20260906061330 | 80 | 101 | 0.0 | 0.0 | 0.00 | 0.00 | 0.00 | 87 | 1017.7 |
| 20260906060830 | 81 | 72 | 0.0 | 0.0 | 0.00 | 0.00 | 0.00 | 87 | 1018.0 |
| 20260906060328 | 81 | 67 | 0.0 | 0.0 | 0.00 | 0.00 | 0.00 | 86 | 1017.9 |
| 20260906055823 | 81 | 64 | 0.0 | 0.0 | 0.00 | 0.00 | 0.00 | 86 | 1018.0 |
| 20260906055319 | 81 | 86 | 0.0 | 0.0 | 0.00 | 0.00 | 0.00 | 86 | 1018.1 |
| 20260906054814 | 81 | 74 | 0.0 | 0.0 | 0.00 | 0.00 | 0.00 | 85 | 1018.0 |
| 20260906054309 | 81 | 112 | 0.0 | 0.0 | 0.00 | 0.00 | 0.00 | 85 | 1018.0 |
| 20260906053806 | 81 | 87 | 0.0 | 0.0 | 0.00 | 0.00 | 0.00 | 85 | 1018.1 |
| 20260906053301 | 80 | 76 | 0.0 | 0.0 | 0.00 | 0.00 | 0.00 | 86 | 1017.9 |
| 20260906052756 | 80 | 110 | 0.0 | 0.0 | 0.00 | 0.00 | 0.00 | 87 | 1017.9 |
| 20260906052252 | 79 | 83 | 0.0 | 0.0 | 0.00 | 0.00 | 0.00 | 88 | 1018.0 |
| 20260906051749 | 79 | 83 | 0.0 | 0.0 | 0.00 | 0.00 | 0.00 | 87 | 1017.9 |
| 20260906051248 | 79 | 83 | 0.0 | 0.0 | 0.00 | 0.00 | 0.00 | 87 | 1017.8 |
| 20260906050744 | 79 | 83 | 0.0 | 0.0 | 0.00 | 0.00 | 0.00 | 86 | 1017.6 |
| 20260906050239 | 80 | 91 | 0.0 | 0.0 | 0.00 | 0.00 | 0.00 | 86 | 1017.8 |
| 20260906045738 | 79 | 116 | 0.0 | 0.0 | 0.00 | 0.00 | 0.00 | 87 | 1017.7 |
| 20260906045233 | 79 | 116 | 0.0 | 0.0 | 0.00 | 0.00 | 0.00 | 87 | 1017.7 |
| 20260906044728 | 79 | 116 | 0.0 | 0.0 | 0.00 | 0.00 | 0.00 | 87 | 1017.6 |
| 20260906044224 | 79 | 116 | 0.0 | 0.0 | 0.00 | 0.00 | 0.00 | 87 | 1017.5 |
| 20260906043720 | 79 | 116 | 0.0 | 0.0 | 0.00 | 0.00 | 0.00 | 87 | 1017.5 |
| 20260906043216 | 79 | 116 | 0.0 | 0.0 | 0.00 | 0.00 | 0.00 | 86 | 1017.5 |
| 20260906042715 | 80 | 116 | 0.0 | 0.0 | 0.00 | 0.00 | 0.00 | 87 | 1017.4 |
| 20260906042214 | 80 | 116 | 0.0 | 0.0 | 0.00 | 0.00 | 0.00 | 87 | 1017.4 |
| 20260906041710 | 80 | 116 | 0.0 | 0.0 | 0.00 | 0.00 | 0.00 | 86 | 1017.4 |
| 20260906041205 | 80 | 116 | 0.0 | 0.0 | 0.00 | 0.00 | 0.00 | 85 | 1017.5 |
| 20260906040701 | 80 | 116 | 0.0 | 0.0 | 0.00 | 0.00 | 0.00 | 86 | 1017.4 |
| 20260906040156 | 80 | 116 | 0.0 | 0.0 | 0.00 | 0.00 | 0.00 | 87 | 1017.3 |
| 20260906035651 | 80 | 116 | 0.0 | 0.0 | 0.00 | 0.00 | 0.00 | 86 | 1017.3 |
| 20260906035147 | 80 | 116 | 0.0 | 0.0 | 0.00 | 0.00 | 0.00 | 85 | 1017.1 |
| 20260906034641 | 80 | 116 | 0.0 | 0.0 | 0.00 | 0.00 | 0.00 | 85 | 1017.3 |
| 20260906034136 | 80 | 116 | 0.0 | 0.0 | 0.00 | 0.00 | 0.00 | 85 | 1017.0 |
| 20260906033631 | 81 | 116 | 0.0 | 0.0 | 0.00 | 0.00 | 0.00 | 86 | 1017.0 |
| 20260906033126 | 81 | 116 | 0.0 | 0.0 | 0.00 | 0.00 | 0.00 | 84 | 1017.0 |
| 20260906032623 | 80 | 116 | 0.0 | 0.0 | 0.00 | 0.00 | 0.00 | 83 | 1017.0 |
| 20260906032122 | 80 | 116 | 0.0 | 0.0 | 0.00 | 0.00 | 0.00 | 84 | 1016.8 |
| 20260906031618 | 80 | 116 | 0.0 | 0.0 | 0.00 | 0.00 | 0.00 | 84 | 1016.7 |
| 20260906031114 | 81 | 116 | 0.0 | 0.0 | 0.00 | 0.00 | 0.00 | 84 | 1016.9 |
| 20260906030612 | 81 | 116 | 0.0 | 0.0 | 0.00 | 0.00 | 0.00 | 83 | 1016.8 |
| 20260906030108 | 81 | 116 | 0.0 | 0.0 | 0.00 | 0.00 | 0.00 | 82 | 1016.7 |
| 20260906025607 | 81 | 117 | 0.0 | 0.0 | 0.00 | 0.00 | 0.00 | 82 | 1016.9 |
| 20260906025106 | 82 | 102 | 0.0 | 0.0 | 0.00 | 0.00 | 0.00 | 85 | 1016.7 |
| 20260906024601 | 82 | 102 | 0.0 | 0.0 | 0.00 | 0.00 | 0.00 | 82 | 1016.6 |
| 20260906024055 | 82 | 102 | 0.0 | 0.0 | 0.00 | 0.00 | 0.00 | 81 | 1016.5 |
| 20260906023552 | 82 | 102 | 0.0 | 0.0 | 0.00 | 0.00 | 0.00 | 80 | 1016.6 |
| 20260906023052 | 82 | 102 | 0.0 | 0.0 | 0.00 | 0.00 | 0.00 | 80 | 1016.5 |
| 20260906022547 | 82 | 102 | 0.0 | 0.0 | 0.00 | 0.00 | 0.00 | 80 | 1016.5 |
| 20260906022042 | 82 | 102 | 0.0 | 0.0 | 0.00 | 0.00 | 0.00 | 80 | 1016.6 |
| 20260906021538 | 82 | 102 | 0.0 | 0.0 | 0.00 | 0.00 | 0.00 | 80 | 1016.3 |
| 20260906021036 | 82 | 102 | 0.0 | 0.0 | 0.00 | 0.00 | 0.00 | 81 | 1016.1 |
| 20260906020531 | 82 | 102 | 0.0 | 0.0 | 0.00 | 0.00 | 0.00 | 81 | 1016.1 |
| 20260906020031 | 82 | 102 | 0.0 | 0.0 | 0.00 | 0.00 | 0.00 | 81 | 1016.2 |
| 20260906015529 | 82 | 102 | 0.0 | 0.0 | 0.00 | 0.00 | 0.00 | 81 | 1016.2 |
| 20260906015024 | 82 | 102 | 0.0 | 0.0 | 0.00 | 0.00 | 0.00 | 81 | 1015.9 |
| 20260906014519 | 83 | 102 | 0.0 | 0.0 | 0.00 | 0.00 | 0.00 | 81 | 1015.8 |
| 20260906014015 | 83 | 102 | 0.0 | 0.0 | 0.00 | 0.00 | 0.00 | 80 | 1015.7 |
| 20260906013509 | 83 | 102 | 0.0 | 0.0 | 0.00 | 0.00 | 0.00 | 80 | 1015.7 |
| 20260906013000 | 83 | 102 | 0.0 | 0.0 | 0.00 | 0.00 | 0.00 | 80 | 1015.7 |
| 20260906012455 | 83 | 102 | 0.0 | 0.0 | 0.00 | 0.00 | 0.00 | 80 | 1015.6 |
| 20260906011954 | 84 | 100 | 0.0 | 0.0 | 0.00 | 0.00 | 0.00 | 79 | 1015.7 |
| 20260906011450 | 84 | 108 | 0.0 | 0.0 | 0.00 | 0.00 | 0.00 | 79 | 1015.5 |
| 20260906010944 | 84 | 108 | 0.0 | 0.0 | 0.00 | 0.00 | 0.00 | 78 | 1015.6 |
| 20260906010440 | 85 | 108 | 0.0 | 0.0 | 0.00 | 0.00 | 0.00 | 78 | 1015.5 |
| 20260906005937 | 86 | 98 | 0.0 | 0.0 | 0.00 | 0.00 | 0.00 | 76 | 1015.5 |
| 20260906005435 | 86 | 97 | 0.0 | 0.0 | 0.00 | 0.00 | 0.00 | 75 | 1015.5 |
| 20260906004928 | 86 | 138 | 0.0 | 0.0 | 0.00 | 0.00 | 0.00 | 75 | 1015.4 |
| 20260906004423 | 86 | 128 | 0.0 | 0.0 | 0.00 | 0.00 | 0.00 | 74 | 1015.2 |
| 20260906003919 | 87 | 134 | 0.0 | 0.0 | 0.00 | 0.00 | 0.00 | 75 | 1015.2 |
| 20260906003414 | 87 | 154 | 0.0 | 0.0 | 0.00 | 0.00 | 0.00 | 73 | 1015.3 |
| 20260906002909 | 87 | 134 | 0.0 | 0.0 | 0.00 | 0.00 | 0.00 | 74 | 1015.0 |
| 20260906002409 | 87 | 99 | 0.0 | 0.0 | 0.00 | 0.00 | 0.00 | 72 | 1015.1 |
| 20260906001904 | 88 | 96 | 0.0 | 0.0 | 0.00 | 0.00 | 0.00 | 70 | 1015.2 |
| 20260906001400 | 88 | 92 | 0.0 | 0.0 | 0.00 | 0.00 | 0.00 | 70 | 1015.2 |
| 20260906000859 | 89 | 91 | 0.0 | 0.0 | 0.00 | 0.00 | 0.00 | 70 | 1015.4 |
| 20260906000356 | 89 | 91 | 0.0 | 0.0 | 0.00 | 0.00 | 0.00 | 70 | 1015.4 |
| 20260905235849 | 90 | 91 | 0.0 | 0.0 | 0.00 | 0.00 | 0.00 | 68 | 1015.3 |
| 20260905235343 | 90 | 92 | 0.0 | 0.0 | 0.00 | 0.00 | 0.00 | 67 | 1015.3 |
| 20260905234839 | 91 | 91 | 0.0 | 0.0 | 0.00 | 0.00 | 0.00 | 65 | 1015.3 |
| 20260905234334 | 91 | 91 | 0.0 | 0.0 | 0.00 | 0.00 | 0.00 | 64 | 1015.5 |
| 20260905233829 | 92 | 91 | 0.0 | 0.0 | 0.00 | 0.00 | 0.00 | 63 | 1015.3 |
| 20260905233324 | 92 | 91 | 0.0 | 0.0 | 0.00 | 0.00 | 0.00 | 61 | 1015.4 |
| 20260905232823 | 93 | 91 | 0.0 | 0.0 | 0.00 | 0.00 | 0.00 | 59 | 1015.4 |
| 20260905232320 | 93 | 91 | 0.0 | 0.0 | 0.00 | 0.00 | 0.00 | 60 | 1015.3 |
| 20260905231815 | 93 | 91 | 0.0 | 0.0 | 0.00 | 0.00 | 0.00 | 58 | 1015.5 |
| 20260905231310 | 94 | 79 | 0.0 | 0.0 | 0.00 | 0.00 | 0.00 | 56 | 1015.4 |
| 20260905230806 | 94 | 83 | 0.0 | 0.0 | 0.00 | 0.00 | 0.00 | 56 | 1015.3 |
| 20260905230304 | 94 | 81 | 0.0 | 0.0 | 0.00 | 0.00 | 0.00 | 56 | 1015.5 |
| 20260905225804 | 95 | 104 | 0.0 | 0.0 | 0.00 | 0.00 | 0.00 | 55 | 1015.4 |
| 20260905225259 | 95 | 102 | 0.0 | 0.0 | 0.00 | 0.00 | 0.00 | 55 | 1015.4 |
| 20260905224758 | 95 | 66 | 0.0 | 0.9 | 0.00 | 0.00 | 0.00 | 54 | 1015.3 |
| 20260905224254 | 95 | 103 | 0.9 | 0.9 | 0.00 | 0.00 | 0.00 | 54 | 1015.1 |
| 20260905223749 | 96 | 239 | 0.9 | 1.7 | 0.00 | 0.00 | 0.00 | 53 | 1015.3 |
| 20260905223246 | 96 | 169 | 1.7 | 2.6 | 0.00 | 0.00 | 0.00 | 54 | 1015.3 |
| 20260905222741 | 98 | 74 | 0.0 | 0.0 | 0.00 | 0.00 | 0.00 | 48 | 1015.2 |
| 20260905222240 | 98 | 97 | 0.0 | 0.0 | 0.00 | 0.00 | 0.00 | 48 | 1015.1 |
| 20260905221736 | 99 | 87 | 0.0 | 0.9 | 0.00 | 0.00 | 0.00 | 47 | 1015.2 |
| 20260905221233 | 100 | 133 | 0.0 | 0.0 | 0.00 | 0.00 | 0.00 | 45 | 1015.0 |
| 20260905220729 | 99 | 230 | 0.0 | 0.9 | 0.00 | 0.00 | 0.00 | 45 | 1015.2 |
| 20260905220225 | 99 | 73 | 0.0 | 0.9 | 0.00 | 0.00 | 0.00 | 45 | 1015.1 |
| 20260905215724 | 100 | 129 | 0.0 | 0.0 | 0.00 | 0.00 | 0.00 | 44 | 1015.0 |
| 20260905215220 | 100 | 86 | 0.0 | 0.9 | 0.00 | 0.00 | 0.00 | 45 | 1015.1 |
| 20260905214716 | 102 | 75 | 0.0 | 1.7 | 0.00 | 0.00 | 0.00 | 43 | 1015.1 |
| 20260905214211 | 102 | 266 | 0.0 | 1.7 | 0.00 | 0.00 | 0.00 | 43 | 1015.3 |
| 20260905213706 | 102 | 127 | 0.0 | 1.7 | 0.00 | 0.00 | 0.00 | 43 | 1015.2 |
| 20260905213202 | 101 | 129 | 0.9 | 1.7 | 0.00 | 0.00 | 0.00 | 42 | 1015.1 |
| 20260905212657 | 103 | 158 | 0.0 | 0.0 | 0.00 | 0.00 | 0.00 | 41 | 1015.3 |
| 20260905212156 | 103 | 344 | 0.9 | 1.7 | 0.00 | 0.00 | 0.00 | 39 | 1015.3 |
| 20260905211650 | 104 | 319 | 0.0 | 0.0 | 0.00 | 0.00 | 0.00 | 42 | 1015.4 |
| 20260905211146 | 103 | 148 | 0.9 | 0.9 | 0.00 | 0.00 | 0.00 | 41 | 1015.3 |
| 20260905210643 | 103 | 255 | 0.0 | 0.9 | 0.00 | 0.00 | 0.00 | 41 | 1015.4 |
| 20260905210142 | 104 | 273 | 1.7 | 1.7 | 0.00 | 0.00 | 0.00 | 41 | 1015.5 |
| 20260905205641 | 103 | 281 | 0.0 | 2.6 | 0.00 | 0.00 | 0.00 | 40 | 1015.4 |
| 20260905205136 | 104 | 187 | 0.9 | 0.9 | 0.00 | 0.00 | 0.00 | 39 | 1015.6 |
| 20260905204630 | 104 | 223 | 0.0 | 1.7 | 0.00 | 0.00 | 0.00 | 41 | 1015.7 |
| 20260905204125 | 102 | 265 | 1.7 | 2.6 | 0.00 | 0.00 | 0.00 | 41 | 1015.5 |
| 20260905203620 | 103 | 129 | 0.0 | 2.6 | 0.00 | 0.00 | 0.00 | 43 | 1015.6 |
| 20260905203115 | 104 | 108 | 2.6 | 2.6 | 0.00 | 0.00 | 0.00 | 41 | 1015.7 |
| 20260905202610 | 104 | 288 | 0.9 | 1.7 | 0.00 | 0.00 | 0.00 | 41 | 1015.6 |
| 20260905202105 | 103 | 145 | 0.9 | 1.7 | 0.00 | 0.00 | 0.00 | 42 | 1015.7 |
| 20260905201601 | 102 | 96 | 0.0 | 1.7 | 0.00 | 0.00 | 0.00 | 45 | 1015.6 |
| 20260905201100 | 102 | 112 | 0.9 | 1.7 | 0.00 | 0.00 | 0.00 | 43 | 1015.8 |
| 20260905200556 | 103 | 164 | 0.0 | 0.9 | 0.00 | 0.00 | 0.00 | 45 | 1015.8 |
| 20260905200055 | 103 | 18 | 0.0 | 1.7 | 0.00 | 0.00 | 0.00 | 43 | 1015.8 |
| 20260905195549 | 104 | 292 | 0.0 | 1.7 | 0.00 | 0.00 | 0.00 | 41 | 1015.8 |
| 20260905195040 | 103 | 205 | 0.0 | 1.7 | 0.00 | 0.00 | 0.00 | 42 | 1016.1 |
| 20260905194539 | 101 | 275 | 0.9 | 1.7 | 0.00 | 0.00 | 0.00 | 43 | 1016.1 |
| 20260905194039 | 101 | 109 | 0.0 | 0.9 | 0.00 | 0.00 | 0.00 | 45 | 1016.3 |
| 20260905193534 | 100 | 84 | 0.0 | 1.7 | 0.00 | 0.00 | 0.00 | 45 | 1016.3 |
| 20260905193029 | 100 | 65 | 0.0 | 0.0 | 0.00 | 0.00 | 0.00 | 47 | 1016.6 |
| 20260905192524 | 101 | 127 | 1.7 | 1.7 | 0.00 | 0.00 | 0.00 | 45 | 1016.6 |
| 20260905192020 | 103 | 111 | 0.9 | 1.7 | 0.00 | 0.00 | 0.00 | 46 | 1016.8 |
| 20260905191519 | 103 | 260 | 0.9 | 1.7 | 0.00 | 0.00 | 0.00 | 43 | 1016.5 |
| 20260905191018 | 103 | 235 | 0.0 | 1.7 | 0.00 | 0.00 | 0.00 | 44 | 1016.6 |
| 20260905190516 | 102 | 260 | 0.9 | 1.7 | 0.00 | 0.00 | 0.00 | 44 | 1016.6 |
| 20260905190015 | 103 | 266 | 0.9 | 1.7 | 0.00 | 0.00 | 0.00 | 44 | 1016.8 |
| 20260905185510 | 102 | 335 | 0.0 | 1.7 | 0.00 | 0.00 | 0.00 | 45 | 1016.9 |
| 20260905185009 | 101 | 356 | 0.9 | 1.7 | 0.00 | 0.00 | 0.00 | 46 | 1017.0 |
| 20260905184504 | 100 | 199 | 0.9 | 2.6 | 0.00 | 0.00 | 0.00 | 46 | 1017.0 |
| 20260905184003 | 100 | 136 | 0.9 | 1.7 | 0.00 | 0.00 | 0.00 | 48 | 1016.9 |
| 20260905183502 | 100 | 119 | 0.9 | 1.7 | 0.00 | 0.00 | 0.00 | 48 | 1017.2 |
| 20260905182957 | 100 | 114 | 1.7 | 1.7 | 0.00 | 0.00 | 0.00 | 51 | 1017.1 |
| 20260905182457 | 102 | 165 | 0.9 | 1.7 | 0.00 | 0.00 | 0.00 | 48 | 1017.1 |
| 20260905181952 | 101 | 166 | 0.0 | 1.7 | 0.00 | 0.00 | 0.00 | 49 | 1017.1 |
| 20260905181447 | 99 | 211 | 0.0 | 1.7 | 0.00 | 0.00 | 0.00 | 52 | 1017.1 |
| 20260905180946 | 100 | 96 | 0.0 | 0.9 | 0.00 | 0.00 | 0.00 | 52 | 1017.2 |
| 20260905180441 | 100 | 98 | 0.9 | 0.9 | 0.00 | 0.00 | 0.00 | 51 | 1017.3 |
| 20260905175936 | 100 | 3 | 0.0 | 1.7 | 0.00 | 0.00 | 0.00 | 51 | 1017.4 |
| 20260905175435 | 99 | 267 | 1.7 | 1.7 | 0.00 | 0.00 | 0.00 | 52 | 1017.5 |
| 20260905174931 | 100 | 57 | 0.9 | 1.7 | 0.00 | 0.00 | 0.00 | 51 | 1017.3 |
| 20260905174426 | 99 | 256 | 0.0 | 0.9 | 0.00 | 0.00 | 0.00 | 51 | 1017.5 |
| 20260905173922 | 100 | 26 | 0.9 | 0.9 | 0.00 | 0.00 | 0.00 | 51 | 1017.5 |
| 20260905173418 | 98 | 73 | 0.0 | 0.9 | 0.00 | 0.00 | 0.00 | 52 | 1017.7 |
| 20260905172913 | 98 | 219 | 0.9 | 0.9 | 0.00 | 0.00 | 0.00 | 52 | 1017.4 |
| 20260905172410 | 98 | 105 | 0.0 | 2.6 | 0.00 | 0.00 | 0.00 | 51 | 1017.7 |
| 20260905171906 | 98 | 57 | 0.0 | 1.7 | 0.00 | 0.00 | 0.00 | 51 | 1017.5 |
| 20260905171403 | 97 | 280 | 1.7 | 1.7 | 0.00 | 0.00 | 0.00 | 53 | 1017.7 |
| 20260905170859 | 97 | 251 | 0.9 | 1.7 | 0.00 | 0.00 | 0.00 | 52 | 1017.8 |
| 20260905170355 | 97 | 220 | 0.0 | 2.6 | 0.00 | 0.00 | 0.00 | 53 | 1017.9 |
| 20260905165854 | 96 | 257 | 1.7 | 3.5 | 0.00 | 0.00 | 0.00 | 54 | 1018.0 |
| 20260905165349 | 96 | 298 | 0.9 | 2.6 | 0.00 | 0.00 | 0.00 | 55 | 1017.9 |
| 20260905164844 | 95 | 266 | 0.9 | 1.7 | 0.00 | 0.00 | 0.00 | 56 | 1018.1 |
| 20260905164339 | 95 | 134 | 0.9 | 0.9 | 0.00 | 0.00 | 0.00 | 57 | 1018.0 |
| 20260905163834 | 95 | 208 | 1.7 | 3.5 | 0.00 | 0.00 | 0.00 | 57 | 1018.2 |
| 20260905163330 | 95 | 247 | 1.7 | 2.6 | 0.00 | 0.00 | 0.00 | 57 | 1018.3 |
| 20260905162826 | 95 | 189 | 0.9 | 1.7 | 0.00 | 0.00 | 0.00 | 55 | 1018.3 |
| 20260905162320 | 94 | 293 | 0.9 | 1.7 | 0.00 | 0.00 | 0.00 | 58 | 1018.4 |
| 20260905161814 | 94 | 340 | 0.9 | 1.7 | 0.00 | 0.00 | 0.00 | 59 | 1018.3 |
| 20260905161309 | 94 | 224 | 0.0 | 2.6 | 0.00 | 0.00 | 0.00 | 58 | 1018.4 |
| 20260905160807 | 94 | 255 | 0.0 | 1.7 | 0.00 | 0.00 | 0.00 | 57 | 1018.5 |
| 20260905160301 | 93 | 152 | 0.0 | 0.9 | 0.00 | 0.00 | 0.00 | 59 | 1018.5 |
| 20260905155756 | 92 | 260 | 0.9 | 1.7 | 0.00 | 0.00 | 0.00 | 59 | 1018.6 |
| 20260905155255 | 92 | 254 | 0.9 | 3.5 | 0.00 | 0.00 | 0.00 | 61 | 1018.5 |
| 20260905154749 | 92 | 246 | 1.7 | 2.6 | 0.00 | 0.00 | 0.00 | 60 | 1018.7 |
| 20260905154245 | 92 | 266 | 1.7 | 2.6 | 0.00 | 0.00 | 0.00 | 61 | 1018.5 |
| 20260905153740 | 92 | 221 | 0.9 | 2.6 | 0.00 | 0.00 | 0.00 | 61 | 1018.6 |
| 20260905153236 | 91 | 265 | 1.7 | 1.7 | 0.00 | 0.00 | 0.00 | 62 | 1018.5 |
| 20260905152730 | 91 | 243 | 0.9 | 2.6 | 0.00 | 0.00 | 0.00 | 62 | 1018.5 |
| 20260905152225 | 91 | 297 | 2.6 | 3.5 | 0.00 | 0.00 | 0.00 | 62 | 1018.6 |
| 20260905151724 | 91 | 286 | 0.0 | 1.7 | 0.00 | 0.00 | 0.00 | 64 | 1018.7 |
| 20260905151221 | 90 | 163 | 0.9 | 1.7 | 0.00 | 0.00 | 0.00 | 64 | 1018.5 |
| 20260905150715 | 90 | 267 | 0.9 | 2.6 | 0.00 | 0.00 | 0.00 | 64 | 1018.6 |
| 20260905150214 | 89 | 328 | 1.7 | 2.6 | 0.00 | 0.00 | 0.00 | 65 | 1018.4 |
| 20260905145712 | 89 | 283 | 0.9 | 2.6 | 0.00 | 0.00 | 0.00 | 65 | 1018.6 |
| 20260905145207 | 89 | 273 | 1.7 | 1.7 | 0.00 | 0.00 | 0.00 | 65 | 1018.4 |
| 20260905144706 | 89 | 304 | 1.7 | 1.7 | 0.00 | 0.00 | 0.00 | 65 | 1018.3 |
| 20260905144206 | 89 | 281 | 0.9 | 1.7 | 0.00 | 0.00 | 0.00 | 66 | 1018.6 |
| 20260905143705 | 89 | 262 | 2.6 | 2.6 | 0.00 | 0.00 | 0.00 | 66 | 1018.4 |
| 20260905143200 | 88 | 274 | 1.7 | 2.6 | 0.00 | 0.00 | 0.00 | 68 | 1018.4 |
| 20260905142658 | 88 | 340 | 0.9 | 1.7 | 0.00 | 0.00 | 0.00 | 69 | 1018.4 |
| 20260905142153 | 87 | 264 | 1.7 | 1.7 | 0.00 | 0.00 | 0.00 | 70 | 1018.5 |
| 20260905141648 | 87 | 252 | 0.9 | 1.7 | 0.00 | 0.00 | 0.00 | 70 | 1018.5 |
| 20260905141144 | 87 | 234 | 1.7 | 1.7 | 0.00 | 0.00 | 0.00 | 71 | 1018.6 |
| 20260905140639 | 86 | 295 | 0.0 | 1.7 | 0.00 | 0.00 | 0.00 | 71 | 1018.6 |
| 20260905140138 | 86 | 280 | 0.9 | 1.7 | 0.00 | 0.00 | 0.00 | 72 | 1018.6 |
| 20260905135634 | 86 | 285 | 0.9 | 1.7 | 0.00 | 0.00 | 0.00 | 71 | 1018.6 |
| 20260905135129 | 86 | 295 | 0.0 | 1.7 | 0.00 | 0.00 | 0.00 | 73 | 1018.5 |
| 20260905134624 | 85 | 305 | 0.9 | 1.7 | 0.00 | 0.00 | 0.00 | 74 | 1018.4 |
| 20260905134122 | 84 | 264 | 0.0 | 0.9 | 0.00 | 0.00 | 0.00 | 74 | 1018.5 |